Time,TemperatureF,DewpointF,PressureIn,WindDirection,WindDirectionDegrees,WindSpeedMPH,WindSpeedGustMPH,Humidity,HourlyPrecipIn,Conditions,Clouds,dailyrainin,SolarRadiationWatts/m^2,SoftwareType,DateUTC
2013-05-05 00:11:00,51.0,39.0,-100.00,WSW,239,7.0,12.0,64,0.00,,,0.00,0.000000,,2013-05-05 07:11:00,
2013-05-05 00:21:00,51.0,39.0,-100.00,WSW,239,7.0,12.0,64,0.00,,,0.00,0.000000,,2013-05-05 07:21:00,
2013-05-05 00:32:00,51.0,39.0,-100.00,WSW,239,7.0,12.0,64,0.00,,,0.00,0.000000,,2013-05-05 07:32:00,
2013-05-05 00:42:00,51.0,39.0,-100.00,WSW,239,7.0,12.0,64,0.00,,,0.00,0.000000,,2013-05-05 07:42:00,
2013-05-05 00:50:00,49.0,39.0,-100.00,SW,230,9.0,14.0,68,0.00,,,0.00,0.000000,,2013-05-05 07:50:00,
2013-05-05 01:21:00,49.0,39.0,-100.00,SW,230,9.0,14.0,68,0.00,,,0.00,0.000000,,2013-05-05 08:21:00,
2013-05-05 01:31:00,49.0,39.0,-100.00,SW,230,9.0,14.0,68,0.00,,,0.00,0.000000,,2013-05-05 08:31:00,
2013-05-05 01:42:00,49.0,39.0,-100.00,SW,230,9.0,14.0,68,0.00,,,0.00,0.000000,,2013-05-05 08:42:00,
2013-05-05 01:50:00,49.0,37.0,-100.00,SW,229,8.0,12.0,62,0.00,,,0.00,0.000000,,2013-05-05 08:50:00,
2013-05-05 02:21:00,49.0,37.0,-100.00,SW,229,8.0,12.0,62,0.00,,,0.00,0.000000,,2013-05-05 09:21:00,
2013-05-05 02:32:00,49.0,37.0,-100.00,SW,229,8.0,12.0,62,0.00,,,0.00,0.000000,,2013-05-05 09:32:00,
2013-05-05 02:42:00,49.0,37.0,-100.00,SW,229,8.0,12.0,62,0.00,,,0.00,0.000000,,2013-05-05 09:42:00,
2013-05-05 02:50:00,48.0,36.0,-100.00,SW,227,7.0,10.0,63,0.00,,,0.00,0.000000,,2013-05-05 09:50:00,
2013-05-05 03:12:00,48.0,36.0,-100.00,SW,227,7.0,10.0,63,0.00,,,0.00,0.000000,,2013-05-05 10:12:00,
2013-05-05 03:22:00,48.0,36.0,-100.00,SW,227,7.0,10.0,63,0.00,,,0.00,0.000000,,2013-05-05 10:22:00,
2013-05-05 03:32:00,48.0,36.0,-100.00,SW,227,7.0,10.0,63,0.00,,,0.00,0.000000,,2013-05-05 10:32:00,
2013-05-05 03:42:00,48.0,36.0,-100.00,SW,227,7.0,10.0,63,0.00,,,0.00,0.000000,,2013-05-05 10:42:00,
2013-05-05 03:50:00,47.0,37.0,-100.00,WSW,243,7.0,13.0,68,0.00,,,0.00,0.000000,,2013-05-05 10:50:00,
2013-05-05 04:21:00,47.0,37.0,-100.00,WSW,243,7.0,13.0,68,0.00,,,0.00,0.000000,,2013-05-05 11:21:00,
2013-05-05 04:32:00,47.0,37.0,-100.00,WSW,243,7.0,13.0,68,0.00,,,0.00,0.000000,,2013-05-05 11:32:00,
2013-05-05 04:42:00,47.0,37.0,-100.00,WSW,243,7.0,13.0,68,0.00,,,0.00,0.000000,,2013-05-05 11:42:00,
2013-05-05 04:50:00,47.0,36.0,-100.00,WSW,241,7.0,12.0,65,0.00,,,0.00,0.000000,,2013-05-05 11:50:00,
2013-05-05 05:11:00,47.0,36.0,-100.00,WSW,241,7.0,12.0,65,0.00,,,0.00,0.000000,,2013-05-05 12:11:00,
2013-05-05 05:21:00,47.0,36.0,-100.00,WSW,241,7.0,12.0,65,0.00,,,0.00,0.000000,,2013-05-05 12:21:00,
2013-05-05 05:32:00,47.0,36.0,-100.00,WSW,241,7.0,12.0,65,0.00,,,0.00,0.000000,,2013-05-05 12:32:00,
2013-05-05 05:42:00,47.0,36.0,-100.00,WSW,241,7.0,12.0,65,0.00,,,0.00,0.000000,,2013-05-05 12:42:00,
2013-05-05 05:50:00,47.0,37.0,-100.00,WSW,248,6.0,15.0,69,0.00,,,0.00,1.000000,,2013-05-05 12:50:00,
2013-05-05 06:11:00,47.0,37.0,-100.00,WSW,248,6.0,15.0,69,0.00,,,0.00,1.000000,,2013-05-05 13:11:00,
2013-05-05 06:21:00,47.0,37.0,-100.00,WSW,248,6.0,15.0,69,0.00,,,0.00,1.000000,,2013-05-05 13:21:00,
2013-05-05 06:32:00,47.0,37.0,-100.00,WSW,248,6.0,15.0,69,0.00,,,0.00,1.000000,,2013-05-05 13:32:00,
2013-05-05 06:42:00,47.0,37.0,-100.00,WSW,248,6.0,15.0,69,0.00,,,0.00,1.000000,,2013-05-05 13:42:00,
2013-05-05 06:50:00,47.0,38.0,-100.00,WSW,246,7.0,13.0,70,0.00,,,0.00,9.000000,,2013-05-05 13:50:00,
2013-05-05 07:11:00,47.0,38.0,-100.00,WSW,246,7.0,13.0,70,0.00,,,0.00,9.000000,,2013-05-05 14:11:00,
2013-05-05 07:21:00,47.0,38.0,-100.00,WSW,246,7.0,13.0,70,0.00,,,0.00,9.000000,,2013-05-05 14:21:00,
2013-05-05 07:31:00,47.0,38.0,-100.00,WSW,246,7.0,13.0,70,0.00,,,0.00,9.000000,,2013-05-05 14:31:00,
2013-05-05 07:41:00,47.0,38.0,-100.00,WSW,246,7.0,13.0,70,0.00,,,0.00,9.000000,,2013-05-05 14:41:00,
2013-05-05 07:50:00,49.0,42.0,-100.00,West,266,9.0,17.0,78,0.00,,,0.00,200.000000,,2013-05-05 14:50:00,
2013-05-05 08:11:00,49.0,42.0,-100.00,West,266,9.0,17.0,78,0.00,,,0.00,200.000000,,2013-05-05 15:11:00,
2013-05-05 08:21:00,49.0,42.0,-100.00,West,266,9.0,17.0,78,0.00,,,0.00,200.000000,,2013-05-05 15:21:00,
2013-05-05 08:32:00,49.0,42.0,-100.00,West,266,9.0,17.0,78,0.00,,,0.00,200.000000,,2013-05-05 15:32:00,
2013-05-05 08:43:00,49.0,42.0,-100.00,West,266,9.0,17.0,78,0.00,,,0.00,200.000000,,2013-05-05 15:43:00,
2013-05-05 08:50:00,54.0,43.0,-100.00,WSW,246,10.0,17.0,66,0.00,,,0.00,460.000000,,2013-05-05 15:50:00,
2013-05-05 09:12:00,54.0,43.0,-100.00,WSW,246,10.0,17.0,66,0.00,,,0.00,460.000000,,2013-05-05 16:12:00,
2013-05-05 09:22:00,54.0,43.0,-100.00,WSW,246,10.0,17.0,66,0.00,,,0.00,460.000000,,2013-05-05 16:22:00,
2013-05-05 09:32:00,54.0,43.0,-100.00,WSW,246,10.0,17.0,66,0.00,,,0.00,460.000000,,2013-05-05 16:32:00,
2013-05-05 09:42:00,54.0,43.0,-100.00,WSW,246,10.0,17.0,66,0.00,,,0.00,460.000000,,2013-05-05 16:42:00,
2013-05-05 09:50:00,57.0,42.0,-100.00,WSW,249,11.0,19.0,57,0.00,,,0.00,674.000000,,2013-05-05 16:50:00,
2013-05-05 10:12:00,57.0,42.0,-100.00,WSW,249,11.0,19.0,57,0.00,,,0.00,674.000000,,2013-05-05 17:12:00,
2013-05-05 10:23:00,57.0,42.0,-100.00,WSW,249,11.0,19.0,57,0.00,,,0.00,674.000000,,2013-05-05 17:23:00,
2013-05-05 10:32:00,57.0,42.0,-100.00,WSW,249,11.0,19.0,57,0.00,,,0.00,674.000000,,2013-05-05 17:32:00,
2013-05-05 10:42:00,57.0,42.0,-100.00,WSW,249,11.0,19.0,57,0.00,,,0.00,674.000000,,2013-05-05 17:42:00,
2013-05-05 10:50:00,59.0,41.0,-100.00,WSW,248,13.0,20.0,51,0.00,,,0.00,845.000000,,2013-05-05 17:50:00,
2013-05-05 11:11:00,59.0,41.0,-100.00,WSW,248,13.0,20.0,51,0.00,,,0.00,845.000000,,2013-05-05 18:11:00,
2013-05-05 11:21:00,59.0,41.0,-100.00,WSW,248,13.0,20.0,51,0.00,,,0.00,845.000000,,2013-05-05 18:21:00,
2013-05-05 11:31:00,59.0,41.0,-100.00,WSW,248,13.0,20.0,51,0.00,,,0.00,845.000000,,2013-05-05 18:31:00,
2013-05-05 11:42:00,59.0,41.0,-100.00,WSW,248,13.0,20.0,51,0.00,,,0.00,845.000000,,2013-05-05 18:42:00,
2013-05-05 11:50:00,62.0,42.0,-100.00,SW,229,12.0,22.0,47,0.00,,,0.00,987.000000,,2013-05-05 18:50:00,
2013-05-05 12:11:00,62.0,42.0,-100.00,SW,229,12.0,22.0,47,0.00,,,0.00,987.000000,,2013-05-05 19:11:00,
2013-05-05 12:21:00,62.0,42.0,-100.00,SW,229,12.0,22.0,47,0.00,,,0.00,987.000000,,2013-05-05 19:21:00,
2013-05-05 12:32:00,62.0,42.0,-100.00,SW,229,12.0,22.0,47,0.00,,,0.00,987.000000,,2013-05-05 19:32:00,
2013-05-05 12:41:00,62.0,42.0,-100.00,SW,229,12.0,22.0,47,0.00,,,0.00,987.000000,,2013-05-05 19:41:00,
2013-05-05 12:50:00,65.0,39.0,-100.00,SW,214,12.0,23.0,39,0.00,,,0.00,1076.000000,,2013-05-05 19:50:00,
2013-05-05 13:21:00,65.0,39.0,-100.00,SW,214,12.0,23.0,39,0.00,,,0.00,1076.000000,,2013-05-05 20:21:00,
2013-05-05 13:31:00,65.0,39.0,-100.00,SW,214,12.0,23.0,39,0.00,,,0.00,1076.000000,,2013-05-05 20:31:00,
2013-05-05 13:41:00,65.0,39.0,-100.00,SW,214,12.0,23.0,39,0.00,,,0.00,1076.000000,,2013-05-05 20:41:00,
2013-05-05 13:50:00,66.0,38.0,-100.00,SW,220,12.0,23.0,36,0.00,,,0.00,1027.000000,,2013-05-05 20:50:00,
2013-05-05 14:11:00,66.0,38.0,-100.00,SW,220,12.0,23.0,36,0.00,,,0.00,1027.000000,,2013-05-05 21:11:00,
2013-05-05 14:21:00,66.0,38.0,-100.00,SW,220,12.0,23.0,36,0.00,,,0.00,1027.000000,,2013-05-05 21:21:00,
2013-05-05 14:32:00,66.0,38.0,-100.00,SW,220,12.0,23.0,36,0.00,,,0.00,1027.000000,,2013-05-05 21:32:00,
2013-05-05 14:42:00,66.0,38.0,-100.00,SW,220,12.0,23.0,36,0.00,,,0.00,1027.000000,,2013-05-05 21:42:00,
2013-05-05 14:50:00,66.0,36.0,-100.00,SW,228,14.0,25.0,33,0.00,,,0.00,942.000000,,2013-05-05 21:50:00,
2013-05-05 15:12:00,66.0,36.0,-100.00,SW,228,14.0,25.0,33,0.00,,,0.00,942.000000,,2013-05-05 22:12:00,
2013-05-05 15:22:00,66.0,36.0,-100.00,SW,228,14.0,25.0,33,0.00,,,0.00,942.000000,,2013-05-05 22:22:00,
2013-05-05 15:33:00,66.0,36.0,-100.00,SW,228,14.0,25.0,33,0.00,,,0.00,942.000000,,2013-05-05 22:33:00,
2013-05-05 15:42:00,66.0,36.0,-100.00,SW,228,14.0,25.0,33,0.00,,,0.00,942.000000,,2013-05-05 22:42:00,
2013-05-05 15:50:00,60.0,43.0,-100.00,WSW,253,17.0,28.0,53,0.00,,,0.00,608.000000,,2013-05-05 22:50:00,
2013-05-05 16:11:00,60.0,43.0,-100.00,WSW,253,17.0,28.0,53,0.00,,,0.00,608.000000,,2013-05-05 23:11:00,
2013-05-05 16:21:00,60.0,43.0,-100.00,WSW,253,17.0,28.0,53,0.00,,,0.00,608.000000,,2013-05-05 23:21:00,
2013-05-05 16:32:00,60.0,43.0,-100.00,WSW,253,17.0,28.0,53,0.00,,,0.00,608.000000,,2013-05-05 23:32:00,
2013-05-05 16:42:00,60.0,43.0,-100.00,WSW,253,17.0,28.0,53,0.00,,,0.00,608.000000,,2013-05-05 23:42:00,
2013-05-05 16:50:00,59.0,43.0,-100.00,WSW,238,16.0,27.0,55,0.00,,,0.00,622.000000,,2013-05-05 23:50:00,
2013-05-05 17:11:00,59.0,43.0,-100.00,WSW,238,16.0,27.0,55,0.00,,,0.00,622.000000,,2013-05-06 00:11:00,
2013-05-05 17:21:00,59.0,43.0,-100.00,WSW,238,16.0,27.0,55,0.00,,,0.00,622.000000,,2013-05-06 00:21:00,
2013-05-05 17:31:00,59.0,43.0,-100.00,WSW,238,16.0,27.0,55,0.00,,,0.00,622.000000,,2013-05-06 00:31:00,
2013-05-05 17:41:00,59.0,43.0,-100.00,WSW,238,16.0,27.0,55,0.00,,,0.00,622.000000,,2013-05-06 00:41:00,
2013-05-05 17:50:00,53.0,47.0,-100.00,WSW,255,17.0,30.0,79,0.00,,,0.00,160.000000,,2013-05-06 00:50:00,
2013-05-05 18:11:00,53.0,47.0,-100.00,WSW,255,17.0,30.0,79,0.00,,,0.00,160.000000,,2013-05-06 01:11:00,
2013-05-05 18:21:00,53.0,47.0,-100.00,WSW,255,17.0,30.0,79,0.00,,,0.00,160.000000,,2013-05-06 01:21:00,
2013-05-05 18:31:00,53.0,47.0,-100.00,WSW,255,17.0,30.0,79,0.00,,,0.00,160.000000,,2013-05-06 01:31:00,
2013-05-05 18:41:00,53.0,47.0,-100.00,WSW,255,17.0,30.0,79,0.00,,,0.00,160.000000,,2013-05-06 01:41:00,
2013-05-05 18:50:00,51.0,47.0,-100.00,SW,235,13.0,26.0,85,0.00,,,0.00,128.000000,,2013-05-06 01:50:00,
2013-05-05 19:21:00,51.0,47.0,-100.00,SW,235,13.0,26.0,85,0.00,,,0.00,128.000000,,2013-05-06 02:21:00,
2013-05-05 19:32:00,51.0,47.0,-100.00,SW,235,13.0,26.0,85,0.00,,,0.00,128.000000,,2013-05-06 02:32:00,
2013-05-05 19:42:00,51.0,47.0,-100.00,SW,235,13.0,26.0,85,0.00,,,0.00,128.000000,,2013-05-06 02:42:00,
2013-05-05 19:50:00,49.0,45.0,-100.00,SW,231,11.0,21.0,87,0.00,,,0.00,44.000000,,2013-05-06 02:50:00,
2013-05-05 20:22:00,49.0,45.0,-100.00,SW,231,11.0,21.0,87,0.00,,,0.00,44.000000,,2013-05-06 03:22:00,
2013-05-05 20:33:00,49.0,45.0,-100.00,SW,231,11.0,21.0,87,0.00,,,0.00,44.000000,,2013-05-06 03:33:00,
2013-05-05 20:42:00,49.0,45.0,-100.00,SW,231,11.0,21.0,87,0.00,,,0.00,44.000000,,2013-05-06 03:42:00,
2013-05-05 20:50:00,48.0,45.0,-100.00,WSW,238,10.0,19.0,88,0.00,,,0.00,0.000000,,2013-05-06 03:50:00,
2013-05-05 21:23:00,48.0,45.0,-100.00,WSW,238,10.0,19.0,88,0.00,,,0.00,0.000000,,2013-05-06 04:23:00,
2013-05-05 21:32:00,48.0,45.0,-100.00,WSW,238,10.0,19.0,88,0.00,,,0.00,0.000000,,2013-05-06 04:32:00,
2013-05-05 21:42:00,48.0,45.0,-100.00,WSW,238,10.0,19.0,88,0.00,,,0.00,0.000000,,2013-05-06 04:42:00,
2013-05-05 21:50:00,47.0,45.0,-100.00,West,264,4.0,16.0,91,0.00,,,0.00,0.000000,,2013-05-06 04:50:00,
2013-05-05 22:12:00,47.0,45.0,-100.00,West,264,4.0,16.0,91,0.00,,,0.00,0.000000,,2013-05-06 05:12:00,
2013-05-05 22:22:00,47.0,45.0,-100.00,West,264,4.0,16.0,91,0.00,,,0.00,0.000000,,2013-05-06 05:22:00,
2013-05-05 22:32:00,47.0,45.0,-100.00,West,264,4.0,16.0,91,0.00,,,0.00,0.000000,,2013-05-06 05:32:00,
2013-05-05 22:42:00,47.0,45.0,-100.00,West,264,4.0,16.0,91,0.00,,,0.00,0.000000,,2013-05-06 05:42:00,
2013-05-05 22:50:00,48.0,45.0,-100.00,SW,232,10.0,18.0,90,0.00,,,0.00,0.000000,,2013-05-06 05:50:00,
2013-05-05 23:21:00,48.0,45.0,-100.00,SW,232,10.0,18.0,90,0.00,,,0.00,0.000000,,2013-05-06 06:21:00,
2013-05-05 23:31:00,48.0,45.0,-100.00,SW,232,10.0,18.0,90,0.00,,,0.00,0.000000,,2013-05-06 06:31:00,
2013-05-05 23:41:00,48.0,45.0,-100.00,SW,232,10.0,18.0,90,0.00,,,0.00,0.000000,,2013-05-06 06:41:00,
2013-05-05 23:50:00,48.0,45.0,-100.00,SW,231,11.0,22.0,88,0.00,,,0.00,0.000000,,2013-05-06 06:50:00,